Location: Spruce Knob
(38.6995°N, 79.5330°W)
Time: 14:56:32
(UTC-05:00)

X-37B - Visible Passes

Search period start: 30 November 2023 00:00
Search period end: 10 December 2023 00:00
Orbit: 277 x 277 km, 45.0° (Epoch: 01 November)

Date Brightness Start Highest point End Pass type
(mag) Time Alt. Az. Time Alt. Az. Time Alt. Az.
30 Nov 0.0 18:01:33 10° WSW 18:03:58 67° NNW 18:04:55 31° NE visible
01 Dec 0.9 18:02:23 10° W 18:04:43 37° NNW 18:05:36 26° NNE visible
02 Dec 1.5 18:03:21 10° WNW 18:05:29 26° NNW 18:06:15 21° NNE visible
03 Dec 1.8 18:04:21 10° WNW 18:06:18 20° N 18:06:53 19° NNE visible
04 Dec 1.9 18:05:19 10° NW 18:07:08 18° N 18:07:31 17° N visible
05 Dec 1.9 18:06:12 10° NW 18:07:59 18° N 18:08:11 17° N visible
06 Dec 1.7 18:06:57 10° NW 18:08:50 19° N 18:08:53 19° N visible
07 Dec 1.4 18:07:36 10° NW 18:09:39 23° NNE 18:09:39 23° NNE visible
08 Dec 0.8 18:08:12 10° NW 18:10:27 32° NNE 18:10:32 31° NNE visible
09 Dec 0.1 18:08:48 10° WNW 18:11:12 52° NNE 18:11:34 46° ENE visible
